Weather History for KBKB - January, 2013

Change the Weather History Date:

Wednesday, January 23, 2013

  Actual Average (KPOE) Record (KPOE)
Temperature  
Mean Temperature 58 °F -  
Max Temperature 73 °F 58 °F 78 °F (2002)
Min Temperature 44 °F 39 °F 24 °F (2014)
Degree Days  
Heating Degree Days 6    
Growing Degree Days 8 (Base 50)    
Moisture  
Dew Point 48 °F    
Average Humidity 78    
Maximum Humidity 100    
Minimum Humidity 41    
Precipitation  
Precipitation 0.00 in - - ()
Sea Level Pressure  
Sea Level Pressure 30.34 in    
Wind  
Wind Speed 1 mph (SSW)    
Max Wind Speed 6 mph    
Max Gust Speed -    
Visibility 7 miles    
Events Fog    
Averages and records for this station are not official NWS values.
T = Trace of Precipitation, MM = Missing Value Source: NWS Daily Summary

Daily Weather History Graph

Daily Weather History Graph

Search for Another Location

Airport or City:

Trip Planner

Search our weather history database for the weather conditions in past years. The results will help you decide how hot, cold, wet, or windy it might be!

Date:

Astronomy

Jan. 23, 2013 Rise Set
Actual Time 7:08 AM CST 5:39 PM CST
Civil Twilight 6:42 AM CST 6:05 PM CST
Nautical Twilight 6:12 AM CST 6:34 PM CST
Astronomical Twilight 5:44 AM CST 7:03 PM CST
Moon 2:53 PM CST (1/23) 4:16 AM CST (1/23)
Length of Visible Light 11h 22m
Length of Day
10h 31m
Waxing Gibbous, 89% of the Moon is Illuminated
Jan 23
Waxing Gibbous
Jan 26
Full
Feb 3
Last Quarter
Feb 10
New
Feb 17
First Quarter

Hourly Weather History & Observations

Time (CST) Temp. Dew Point Humidity Pressure Visibility Wind Dir Wind Speed Gust Speed Precip Events Conditions
12:54 AM 46.9 °F 45.0 °F 93% 30.37 in 6.0 mi Calm Calm - N/A   Clear
1:54 AM 48.0 °F 45.0 °F 89% 30.37 in 9.0 mi Calm Calm - N/A   Clear
2:54 AM 46.9 °F 45.0 °F 93% 30.37 in 5.0 mi Calm Calm - N/A   Clear
3:54 AM 46.9 °F 44.1 °F 90% 30.36 in 10.0 mi Calm Calm - N/A   Clear
4:54 AM 46.9 °F 44.1 °F 90% 30.37 in 8.0 mi Calm Calm - N/A   Clear
5:49 AM 46.4 °F 44.6 °F 93% 30.30 in 1.8 mi Calm Calm - N/A   Clear
5:54 AM 46.9 °F 45.0 °F 93% 30.39 in 0.8 mi Calm Calm - N/A   Mist
6:33 AM 46.4 °F 44.6 °F 93% 30.31 in 1.0 mi Calm Calm - N/A   Clear
6:50 AM 46.4 °F 44.6 °F 93% 30.31 in 0.5 mi Calm Calm - N/A Fog Fog
6:54 AM 46.0 °F 44.1 °F 93% 30.40 in 0.8 mi Calm Calm - N/A   Mist
7:31 AM 44.6 °F 44.6 °F 100% 30.31 in 0.5 mi Calm Calm - N/A Fog Fog
7:42 AM 44.6 °F 44.6 °F 100% 30.32 in 2.0 mi Calm Calm - N/A   Clear
7:51 AM 46.4 °F 44.6 °F 93% 30.32 in 5.0 mi Calm Calm - N/A   Clear
7:54 AM 46.9 °F 45.0 °F 93% 30.41 in 6.0 mi Calm Calm - N/A   Clear
8:54 AM 55.9 °F 51.1 °F 84% 30.42 in 10.0 mi Variable 4.6 mph - N/A   Clear
9:54 AM 61.0 °F 52.0 °F 72% 30.42 in 10.0 mi Variable 4.6 mph - N/A   Clear
10:54 AM 66.0 °F 52.0 °F 60% 30.42 in 10.0 mi Variable 4.6 mph - N/A   Clear
11:54 AM 71.1 °F 52.0 °F 51% 30.39 in 10.0 mi Variable 5.8 mph - N/A   Clear
12:54 PM 72.0 °F 48.9 °F 44% 30.36 in 10.0 mi Variable 4.6 mph - N/A   Clear
1:54 PM 73.0 °F 48.0 °F 41% 30.33 in 10.0 mi Variable 5.8 mph - N/A   Clear
2:54 PM 73.9 °F 48.9 °F 41% 30.32 in 10.0 mi SSW 5.8 mph - N/A   Clear
3:54 PM 73.0 °F 48.0 °F 41% 30.32 in 10.0 mi SSW 3.5 mph - N/A   Scattered Clouds
4:54 PM 69.1 °F 48.9 °F 49% 30.32 in 10.0 mi SSW 3.5 mph - N/A   Partly Cloudy
5:54 PM 66.0 °F 51.1 °F 59% 30.31 in 10.0 mi South 3.5 mph - N/A   Clear
6:54 PM 63.0 °F 52.0 °F 67% 30.32 in 10.0 mi Variable 3.5 mph - N/A   Clear
7:54 PM 62.1 °F 53.1 °F 72% 30.31 in 10.0 mi South 4.6 mph - N/A   Clear
8:54 PM 59.0 °F 52.0 °F 78% 30.33 in 10.0 mi Calm Calm - N/A   Clear
9:54 PM 55.0 °F 52.0 °F 89% 30.34 in 10.0 mi Calm Calm - N/A   Clear
10:54 PM 55.9 °F 52.0 °F 87% 30.33 in 10.0 mi Calm Calm - N/A   Clear
11:30 PM 55.4 °F 51.8 °F 88% 30.25 in 10.0 mi Calm Calm - N/A   Mostly Cloudy
11:42 PM 55.4 °F 51.8 °F 88% 30.25 in 10.0 mi Calm Calm - N/A   Scattered Clouds
11:54 PM 55.0 °F 52.0 °F 89% 30.33 in 10.0 mi Calm Calm - N/A   Partly Cloudy